This demonstration page uses our WeatherBlox Daily Observations layout. Learn more.

Left ArrowRight Arrow

40.92945, -100.16068

Hourly Observations for June 22, 2016

Temp ( °F °C ) Dew Point ( °F °C ) Humidity (%) Winds ( mph kmh ) Pressure ( in mb ) Visibility ( mi km ) Precip ( " mm )
12:15 am 00:15 Clear 82 28 57 13.7 41 41 SSW 18 30 29.62 1003 10 16 N/A
12:35 am 00:35 Clear 82 27.9 56 13.3 41 41 SSW 18 30 29.62 1003 10 16 N/A
12:55 am 00:55 Clear 82 27.5 56 13.2 41 41 SSW 18 30 29.62 1003 10 16 N/A
1:15 am 01:15 Clear 81 27 56 13.2 43 43 SSW 14 22 29.62 1003 10 16 N/A
1:35 am 01:35 Clear 80 26.4 56 13.3 44 44 S 10 17 29.62 1003 10 16 N/A
1:55 am 01:55 Clear 80 26.6 55 13 43 43 S 13 20 29.59 1002 10 16 N/A
2:15 am 02:15 Clear 80 26.4 55 12.8 43 43 SSW 16 26 29.59 1002 7 11 N/A
2:35 am 02:35 Clear 80 26.8 55 12.6 41 41 SSW 12 19 29.59 1002 10 16 N/A
2:55 am 02:55 Clear 80 26.6 55 12.6 42 42 SSW 14 22 29.59 1002 10 16 N/A
3:15 am 03:15 Clear 80 26.6 55 12.5 42 42 SW 13 20 29.56 1001 10 16 N/A
3:35 am 03:35 Clear 80 26.6 55 12.5 42 42 SW 14 22 29.56 1001 10 16 N/A
3:55 am 03:55 Clear 80 26.4 54 12.4 42 42 WSW 7 11 29.59 1002 10 16 N/A
4:15 am 04:15 Clear 78 25.7 55 12.6 44 44 SW 7 11 29.56 1001 10 16 N/A
4:35 am 04:35 Clear 78 25.5 55 12.7 45 45 WSW 8 13 29.56 1001 10 16 N/A
4:55 am 04:55 Clear 77 24.9 55 13 48 48 WSW 8 13 29.56 1001 10 16 N/A
5:15 am 05:15 Clear 76 24.2 55 13 50 50 WSW 9 15 29.56 1001 10 16 N/A
5:35 am 05:35 Clear 74 23.2 56 13.2 53 53 W 7 11 29.59 1002 10 16 N/A
5:55 am 05:55 Clear 73 22.5 56 13.3 56 56 W 7 11 29.62 1003 10 16 N/A
6:15 am 06:15 Sunny 73 22.6 56 13.2 55 55 W 10 17 29.62 1003 10 16 N/A
6:35 am 06:35 Sunny 75 23.7 55 12.6 50 50 WNW 13 20 29.65 1004 10 16 N/A
6:55 am 06:55 Sunny 75 24 57 13.9 53 53 NW 14 22 29.65 1004 10 16 N/A
7:15 am 07:15 Sunny 74 23.2 61 16.3 65 65 NNW 15 24 29.68 1005 10 16 N/A
7:35 am 07:35 Mostly Cloudy 76 24.4 67 19.5 74 74 NNW 30 48 29.68 1005 10 16 N/A
7:55 am 07:55 Cloudy 76 24.5 67 19.6 74 74 N 21 33 29.71 1006 10 16 N/A
8:15 am 08:15 Cloudy 76 24.6 68 20 76 76 N 17 28 29.71 1006 10 16 N/A
8:35 am 08:35 Cloudy 77 25 68 20 74 74 NNW 21 33 29.71 1006 10 16 N/A
8:55 am 08:55 Cloudy 77 24.8 68 20 75 75 N 17 28 29.74 1007 10 16 N/A
9:15 am 09:15 Cloudy 77 25.1 68 20.2 74 74 N 17 28 29.74 1007 10 16 N/A
9:35 am 09:35 Cloudy 77 25 67 19.5 72 72 N 18 30 29.77 1008 10 16 N/A
9:55 am 09:55 Cloudy 76 24.7 67 19.4 72 72 N 17 28 29.77 1008 10 16 N/A
10:15 am 10:15 Mostly Cloudy 77 25.1 67 19.4 71 71 N 21 33 29.77 1008 10 16 N/A
10:35 am 10:35 Partly Cloudy 78 25.4 67 19.4 69 69 N 23 37 29.80 1009 10 16 N/A
10:55 am 10:55 Mostly Cloudy 78 25.3 67 19.3 69 69 N 23 37 29.80 1009 10 16 N/A
11:15 am 11:15 Mostly Cloudy 78 25.3 67 19.3 69 69 N 24 39 29.80 1009 10 16 N/A
11:35 am 11:35 Mostly Cloudy 77 24.9 65 18.4 67 67 N 23 37 29.83 1010 10 16 N/A
11:55 am 11:55 Partly Cloudy 78 25.5 66 18.7 66 66 N 15 24 29.83 1010 10 16 N/A
12:15 pm 12:15 Sunny 77 25.2 65 18.3 66 66 NNW 17 28 29.83 1010 10 16 N/A
12:35 pm 12:35 Sunny 79 25.9 66 18.8 65 65 N 17 28 29.83 1010 10 16 N/A
12:55 pm 12:55 Sunny 79 26 64 18 61 61 NNW 14 22 29.83 1010 10 16 N/A
1:15 pm 13:15 Sunny 79 26.3 65 18.6 63 63 NNW 12 19 29.80 1009 10 16 N/A
1:35 pm 13:35 Sunny 82 27.6 66 18.8 59 59 NNW 18 30 29.80 1009 10 16 N/A
1:55 pm 13:55 Sunny 82 28 66 18.9 58 58 NNW 15 24 29.80 1009 10 16 N/A
2:15 pm 14:15 Sunny 83 28.5 66 18.8 56 56 NNW 17 28 29.80 1009 10 16 N/A
2:35 pm 14:35 Sunny 84 28.7 66 18.7 55 55 NNW 18 30 29.80 1009 10 16 N/A
2:55 pm 14:55 Sunny 83 28.5 65 18.4 54 54 NNW 15 24 29.80 1009 10 16 N/A
3:15 pm 15:15 Sunny 84 29 65 18.3 52 52 NNW 18 30 29.80 1009 10 16 N/A
3:35 pm 15:35 Sunny 84 28.8 63 17.2 50 50 NNW 17 28 29.80 1009 10 16 N/A
3:55 pm 15:55 Sunny 84 29.1 61 16.3 46 46 N 15 24 29.80 1009 10 16 N/A
4:15 pm 16:15 Sunny 85 29.2 59 15.2 43 43 N 17 28 29.80 1009 10 16 N/A
4:35 pm 16:35 Sunny 84 28.8 58 14.4 41 41 NNW 12 19 29.83 1010 10 16 N/A
4:55 pm 16:55 Sunny 84 29 58 14.6 41 41 N 14 22 29.83 1010 10 16 N/A
5:15 pm 17:15 Sunny 82 27.6 56 13.5 42 42 N 12 19 29.83 1010 10 16 N/A
5:35 pm 17:35 Sunny 83 28.3 55 13 39 39 N 14 22 29.83 1010 10 16 N/A
5:55 pm 17:55 Sunny 83 28.6 57 13.9 41 41 N 12 19 29.83 1010 10 16 N/A
6:15 pm 18:15 Sunny 84 28.8 55 12.6 37 37 N 13 20 29.83 1010 10 16 N/A
6:35 pm 18:35 Sunny 84 28.7 57 13.7 40 40 N 13 20 29.80 1009 10 16 N/A
6:55 pm 18:55 Sunny 83 28.5 56 13.1 39 39 N 9 15 29.80 1009 10 16 N/A
7:15 pm 19:15 Sunny 81 27.3 56 13.1 42 42 N 7 11 29.83 1010 10 16 N/A
7:35 pm 19:35 Sunny 81 27.1 56 13.5 43 43 N 6 9 29.83 1010 10 16 N/A
7:55 pm 19:55 Sunny 79 26.3 60 15.6 52 52 NNE 3 6 29.85 1011 10 16 N/A
8:15 pm 20:15 Sunny 79 25.9 61 16.1 55 55 N N/A 29.85 1011 10 16 N/A
8:35 pm 20:35 Sunny 78 25.3 61 16.3 58 58 N N/A 29.88 1012 10 16 N/A
8:55 pm 20:55 Sunny 76 24.5 63 17 63 63 N N/A 29.88 1012 10 16 N/A
9:15 pm 21:15 Clear 74 23.4 61 16.3 64 64 NNE 3 6 29.88 1012 10 16 N/A
9:35 pm 21:35 Clear 72 22.3 61 16 68 68 N N/A 29.91 1013 10 16 N/A
9:55 pm 21:55 Clear 70 21 60 15.7 72 72 NNE 7 11 29.94 1014 10 16 N/A
10:15 pm 22:15 Clear 69 20.4 59 15 71 71 NNE 5 7 29.94 1014 10 16 N/A
10:35 pm 22:35 Clear 66 19 59 15.1 78 78 N 7 11 29.97 1015 10 16 N/A
10:55 pm 22:55 Clear 65 18.1 58 14.3 79 79 N 6 9 29.97 1015 10 16 N/A
11:15 pm 23:15 Clear 64 18 58 14.3 79 79 NW 3 6 29.97 1015 10 16 N/A
11:35 pm 23:35 Clear 64 17.6 57 14.1 80 80 N N/A 29.97 1015 10 16 N/A
11:55 pm 23:55 Clear 63 17.2 58 14.5 84 84 NNW 3 6 29.97 1015 10 16 N/A

Powered by AerisWeather